• In Uzbekistan
  • List of Countries
  • For 7 days
  • Water Temperature
  • Satellite Maps
  • Weather Map
  • Weather Widgets
  • user-avatar
    Login

    Hourly Weather Saurimo

    Today, 27 June, Tuesday

    Time Temperature Precipitation Wind Pressure Humidity
    00:00 +18°C° 0 mm 2 mps 671 mmHg 46%
    01:00 +17°C° 0 mm 2 mps 671 mmHg 49%
    02:00 +17°C° 0 mm 2 mps 671 mmHg 51%
    03:00 +16°C° 0 mm 2 mps 671 mmHg 54%
    04:00 +16°C° 0 mm 2 mps 671 mmHg 56%
    05:00 +16°C° 0 mm 2 mps 671 mmHg 56%
    06:00 +16°C° 0 mm 2 mps 672 mmHg 56%
    07:00 +17°C° 0 mm 2 mps 672 mmHg 55%
    08:00 +20°C° 0 mm 3 mps 673 mmHg 46%
    09:00 +24°C° 0 mm 3 mps 673 mmHg 36%
    10:00 +28°C° 0 mm 4 mps 674 mmHg 27%
    11:00 +29°C° 0 mm 3 mps 674 mmHg 25%
    12:00 +30°C° 0 mm 3 mps 674 mmHg 23%
    13:00 +33°C° 0 mm 3 mps 673 mmHg 20%
    14:00 +31°C° 0 mm 3 mps 672 mmHg 21%
    15:00 +31°C° 0 mm 3 mps 672 mmHg 21%
    16:00 +31°C° 0 mm 2 mps 672 mmHg 22%
    17:00 +28°C° 0 mm 2 mps 671 mmHg 28%
    18:00 +24°C° 0 mm 2 mps 671 mmHg 34%
    19:00 +20°C° 0 mm 2 mps 670 mmHg 40%
    20:00 +19°C° 0 mm 2 mps 671 mmHg 41%
    21:00 +19°C° 0 mm 2 mps 671 mmHg 43%
    22:00 +18°C° 0 mm 2 mps 672 mmHg 44%
    23:00 +17°C° 0 mm 2 mps 671 mmHg 46%

    Tomorrow, 28 June, Wednesday

    Time Temperature Precipitation Wind Pressure Humidity
    00:00 +17°C° 0 mm 2 mps 671 mmHg 48%
    01:00 +16°C° 0 mm 2 mps 671 mmHg 50%
    02:00 +16°C° 0 mm 2 mps 671 mmHg 52%
    03:00 +15°C° 0 mm 2 mps 671 mmHg 53%
    04:00 +15°C° 0 mm 2 mps 671 mmHg 55%
    05:00 +15°C° 0 mm 2 mps 671 mmHg 54%
    06:00 +16°C° 0 mm 2 mps 672 mmHg 54%
    07:00 +16°C° 0 mm 2 mps 672 mmHg 53%
    08:00 +20°C° 0 mm 3 mps 673 mmHg 44%
    09:00 +24°C° 0 mm 3 mps 674 mmHg 35%
    10:00 +28°C° 0 mm 3 mps 674 mmHg 26%
    11:00 +29°C° 0 mm 3 mps 674 mmHg 24%
    12:00 +30°C° 0 mm 3 mps 673 mmHg 21%
    13:00 +31°C° 0 mm 3 mps 673 mmHg 18%
    14:00 +31°C° 0 mm 3 mps 672 mmHg 19%
    15:00 +31°C° 0 mm 2 mps 672 mmHg 19%
    16:00 +30°C° 0 mm 2 mps 671 mmHg 20%
    17:00 +27°C° 0 mm 2 mps 671 mmHg 25%
    18:00 +24°C° 0 mm 2 mps 671 mmHg 31%
    19:00 +20°C° 0 mm 2 mps 671 mmHg 36%
    20:00 +19°C° 0 mm 2 mps 671 mmHg 38%
    21:00 +18°C° 0 mm 2 mps 671 mmHg 39%
    22:00 +17°C° 0 mm 2 mps 671 mmHg 41%
    23:00 +17°C° 0 mm 2 mps 671 mmHg 42%

    Day after tomorrow, 29 June, Thursday

    Time Temperature Precipitation Wind Pressure Humidity
    00:00 +16°C° 0 mm 2 mps 671 mmHg 43%
    01:00 +15°C° 0 mm 2 mps 671 mmHg 44%
    02:00 +15°C° 0 mm 2 mps 671 mmHg 45%
    03:00 +14°C° 0 mm 2 mps 671 mmHg 47%
    04:00 +14°C° 0 mm 2 mps 670 mmHg 48%
    05:00 +14°C° 0 mm 2 mps 671 mmHg 48%
    06:00 +15°C° 0 mm 2 mps 671 mmHg 49%
    07:00 +15°C° 0 mm 2 mps 672 mmHg 49%
    08:00 +19°C° 0 mm 3 mps 673 mmHg 42%
    09:00 +24°C° 0 mm 3 mps 674 mmHg 35%
    10:00 +27°C° 0 mm 3 mps 674 mmHg 28%
    11:00 +29°C° 0 mm 3 mps 674 mmHg 24%
    12:00 +30°C° 0 mm 2 mps 673 mmHg 21%
    13:00 +32°C° 0 mm 2 mps 673 mmHg 17%
    14:00 +32°C° 0 mm 2 mps 672 mmHg 18%
    15:00 +31°C° 0 mm 2 mps 672 mmHg 18%
    16:00 +31°C° 0 mm 1 mps 671 mmHg 18%
    17:00 +27°C° 0 mm 1 mps 671 mmHg 23%
    18:00 +24°C° 0 mm 2 mps 671 mmHg 29%
    19:00 +20°C° 0 mm 2 mps 670 mmHg 34%
    20:00 +19°C° 0 mm 2 mps 671 mmHg 36%
    21:00 +19°C° 0 mm 2 mps 671 mmHg 37%
    22:00 +18°C° 0 mm 2 mps 672 mmHg 39%
    23:00 +17°C° 0 mm 2 mps 671 mmHg 41%

    30 June, Friday

    Time Temperature Precipitation Wind Pressure Humidity
    00:00 +17°C° 0 mm 2 mps 671 mmHg 43%
    01:00 +16°C° 0 mm 2 mps 671 mmHg 45%
    02:00 +16°C° 0 mm 2 mps 671 mmHg 46%
    03:00 +16°C° 0 mm 2 mps 671 mmHg 47%
    04:00 +15°C° 0 mm 2 mps 671 mmHg 48%
    05:00 +16°C° 0 mm 3 mps 671 mmHg 48%
    06:00 +16°C° 0 mm 3 mps 672 mmHg 49%
    07:00 +16°C° 0 mm 3 mps 672 mmHg 49%
    08:00 +20°C° 0 mm 3 mps 673 mmHg 43%
    09:00 +24°C° 0 mm 3 mps 674 mmHg 36%
    10:00 +28°C° 0 mm 3 mps 675 mmHg 30%
    11:00 +29°C° 0 mm 3 mps 674 mmHg 26%
    12:00 +31°C° 0 mm 2 mps 673 mmHg 22%
    13:00 +34°C° 0 mm 2 mps 673 mmHg 18%
    14:00 +32°C° 0 mm 2 mps 672 mmHg 18%
    15:00 +32°C° 0 mm 1 mps 672 mmHg 18%
    16:00 +31°C° 0 mm 1 mps 671 mmHg 19%
    17:00 +28°C° 0 mm 1 mps 671 mmHg 24%
    18:00 +25°C° 0 mm 2 mps 671 mmHg 30%
    19:00 +20°C° 0 mm 2 mps 671 mmHg 35%
    20:00 +20°C° 0 mm 2 mps 671 mmHg 37%
    21:00 +19°C° 0 mm 2 mps 671 mmHg 38%
    22:00 +19°C° 0 mm 2 mps 672 mmHg 40%
    23:00 +18°C° 0 mm 2 mps 671 mmHg 42%

    1 July, Saturday

    Time Temperature Precipitation Wind Pressure Humidity
    00:00 +18°C° 0 mm 2 mps 671 mmHg 44%
    01:00 +17°C° 0 mm 2 mps 671 mmHg 46%
    02:00 +17°C° 0 mm 2 mps 671 mmHg 47%
    03:00 +16°C° 0 mm 2 mps 671 mmHg 47%
    04:00 +16°C° 0 mm 2 mps 671 mmHg 48%
    05:00 +16°C° 0 mm 3 mps 671 mmHg 48%
    06:00 +17°C° 0 mm 3 mps 672 mmHg 48%
    07:00 +17°C° 0 mm 3 mps 672 mmHg 48%
    08:00 +20°C° 0 mm 3 mps 673 mmHg 42%
    09:00 +25°C° 0 mm 3 mps 674 mmHg 35%
    10:00 +28°C° 0 mm 4 mps 674 mmHg 29%
    11:00 +29°C° 0 mm 3 mps 674 mmHg 26%
    12:00 +31°C° 0 mm 3 mps 673 mmHg 23%
    13:00 +33°C° 0 mm 3 mps 672 mmHg 20%
    14:00 +32°C° 0 mm 2 mps 672 mmHg 20%
    15:00 +31°C° 0 mm 2 mps 672 mmHg 21%
    16:00 +31°C° 0 mm 2 mps 671 mmHg 21%
    17:00 +28°C° 0 mm 2 mps 671 mmHg 26%
    18:00 +25°C° 0 mm 2 mps 671 mmHg 32%
    19:00 +20°C° 0 mm 2 mps 671 mmHg 37%
    20:00 +20°C° 0 mm 2 mps 671 mmHg 39%
    21:00 +19°C° 0 mm 2 mps 671 mmHg 40%
    22:00 +18°C° 0 mm 2 mps 671 mmHg 42%
    23:00 +18°C° 0 mm 2 mps 671 mmHg 43%

    2 July, Sunday

    Time Temperature Precipitation Wind Pressure Humidity
    00:00 +17°C° 0 mm 2 mps 671 mmHg 44%
    01:00 +17°C° 0 mm 2 mps 671 mmHg 45%
    02:00 +16°C° 0 mm 2 mps 671 mmHg 47%
    03:00 +16°C° 0 mm 2 mps 671 mmHg 48%
    04:00 +15°C° 0 mm 2 mps 671 mmHg 50%
    05:00 +16°C° 0 mm 2 mps 671 mmHg 49%
    06:00 +16°C° 0 mm 3 mps 672 mmHg 49%
    07:00 +17°C° 0 mm 3 mps 672 mmHg 48%
    08:00 +20°C° 0 mm 3 mps 673 mmHg 40%
    09:00 +23°C° 0 mm 4 mps 673 mmHg 32%
    10:00 +28°C° 0 mm 4 mps 674 mmHg 24%
    11:00 +29°C° 0 mm 3 mps 673 mmHg 22%
    12:00 +30°C° 0 mm 3 mps 673 mmHg 19%
    13:00 +32°C° 0 mm 2 mps 672 mmHg 17%
    14:00 +31°C° 0 mm 2 mps 672 mmHg 17%
    15:00 +31°C° 0 mm 2 mps 671 mmHg 17%
    16:00 +31°C° 0 mm 2 mps 671 mmHg 17%
    17:00 +28°C° 0 mm 2 mps 671 mmHg 21%
    18:00 +24°C° 0 mm 2 mps 671 mmHg 25%
    19:00 +20°C° 0 mm 2 mps 671 mmHg 30%
    20:00 +19°C° 0 mm 2 mps 671 mmHg 31%
    21:00 +18°C° 0 mm 2 mps 671 mmHg 32%
    22:00 +18°C° 0 mm 2 mps 671 mmHg 34%
    23:00 +17°C° 0 mm 2 mps 671 mmHg 35%
    Show more